TimeEST,TemperatureF,Dew PointF,Humidity,Sea Level PressureIn,VisibilityMPH,Wind Direction,Wind SpeedMPH,Gust SpeedMPH,PrecipitationIn,Events,Conditions,WindDirDegrees,DateUTC
12:52 AM,16.0,8.1,71,30.39,10.0,Calm,Calm,-,N/A,,Overcast,0,2013-11-29 05:52:00
1:45 AM,15.1,8.1,74,30.33,10.0,West,3.5,-,N/A,,Overcast,280,2013-11-29 06:45:00
1:52 AM,15.1,7.0,70,30.41,10.0,West,3.5,-,N/A,,Overcast,270,2013-11-29 06:52:00
2:30 AM,14.0,8.1,77,30.34,10.0,Calm,Calm,-,N/A,,Overcast,0,2013-11-29 07:30:00
2:52 AM,14.0,7.0,74,30.42,10.0,West,3.5,-,N/A,,Overcast,280,2013-11-29 07:52:00
3:52 AM,14.0,6.1,71,30.43,10.0,Variable,3.5,-,N/A,,Overcast,0,2013-11-29 08:52:00
4:52 AM,14.0,6.1,71,30.45,10.0,Variable,3.5,-,N/A,,Overcast,0,2013-11-29 09:52:00
5:52 AM,12.9,6.1,74,30.47,10.0,NW,5.8,-,N/A,,Overcast,320,2013-11-29 10:52:00
6:12 AM,12.0,6.1,77,30.40,10.0,Calm,Calm,-,N/A,,Overcast,0,2013-11-29 11:12:00
6:40 AM,8.1,5.0,87,30.41,9.0,NNE,4.6,-,N/A,,Overcast,20,2013-11-29 11:40:00
6:52 AM,10.9,6.1,81,30.49,10.0,NNW,5.8,-,N/A,,Overcast,340,2013-11-29 11:52:00
7:52 AM,12.9,6.1,74,30.53,2.5,NW,5.8,-,0.00,Snow,Light Snow,320,2013-11-29 12:52:00
7:59 AM,12.9,7.0,77,30.45,3.0,Variable,5.8,-,0.00,Snow,Light Snow,0,2013-11-29 12:59:00
8:18 AM,12.9,6.1,74,30.46,10.0,Variable,5.8,-,0.00,,Overcast,0,2013-11-29 13:18:00
8:52 AM,12.9,5.0,71,30.55,10.0,Variable,3.5,-,0.00,,Scattered Clouds,0,2013-11-29 13:52:00
9:52 AM,17.1,6.1,62,30.56,10.0,Variable,3.5,-,N/A,,Partly Cloudy,0,2013-11-29 14:52:00
10:26 AM,17.1,5.0,59,30.49,10.0,Variable,3.5,-,N/A,,Mostly Cloudy,0,2013-11-29 15:26:00
10:47 AM,17.6,6.8,63,30.48,10.0,Variable,4.6,-,N/A,,Mostly Cloudy,0,2013-11-29 15:47:00
10:52 AM,19.0,6.1,57,30.56,10.0,North,-9999.0,-,N/A,,Mostly Cloudy,0,2013-11-29 15:52:00
11:52 AM,19.9,6.1,55,30.55,10.0,Variable,5.8,-,N/A,,Partly Cloudy,0,2013-11-29 16:52:00
12:52 PM,21.0,7.0,55,30.56,10.0,Variable,5.8,-,N/A,,Scattered Clouds,0,2013-11-29 17:52:00
1:52 PM,21.9,8.1,55,30.57,10.0,Variable,6.9,-,N/A,,Mostly Cloudy,0,2013-11-29 18:52:00
2:52 PM,21.0,5.0,50,30.58,10.0,NNW,9.2,-,N/A,,Clear,330,2013-11-29 19:52:00
3:52 PM,18.0,5.0,57,30.62,10.0,North,4.6,-,N/A,,Clear,350,2013-11-29 20:52:00
4:52 PM,12.0,6.1,77,30.65,10.0,Calm,Calm,-,N/A,,Clear,0,2013-11-29 21:52:00
5:52 PM,7.0,5.0,92,30.68,10.0,Calm,Calm,-,N/A,,Clear,0,2013-11-29 22:52:00
6:52 PM,3.9,-0.0,84,30.70,10.0,Calm,Calm,-,N/A,,Clear,0,2013-11-29 23:52:00
7:52 PM,3.0,-0.9,84,30.72,10.0,Calm,Calm,-,N/A,,Clear,0,2013-11-30 00:52:00
8:52 PM,1.9,-2.0,83,30.73,10.0,Calm,Calm,-,N/A,,Clear,0,2013-11-30 01:52:00
9:52 PM,-0.0,-4.0,83,30.74,10.0,Calm,Calm,-,N/A,,Clear,0,2013-11-30 02:52:00
10:52 PM,-0.0,-5.1,79,30.75,10.0,Calm,Calm,-,N/A,,Clear,0,2013-11-30 03:52:00
11:52 PM,-0.9,-6.0,79,30.76,10.0,Calm,Calm,-,N/A,,Clear,0,2013-11-30 04:52:00